Regional Weather Roundup
Issued by NWS

Home | Current Version | Previous Version | Graphics & Text | Print | Product List | Glossary Off
Versions: 1 2 3 4 5 6 7 8 9 10 11 12 13 14 15 16 17 18 19 20 21 22 23 24 25 26 27 28 29 30 31 32 33 34 35 36 37 38 39 40 41 42 43 44 45 46 47 48 49 50

030
ASUS43 KTOP 231659
RWRKS

WEATHER ROUNDUP FOR KANSAS
NATIONAL WEATHER SERVICE GOODLAND KS
1200 PM CDT THU MAR 23 2017

NOTE:  "FAIR" INDICATES FEW OR NO CLOUDS BELOW 12,000 FEET WITH NO
SIGNIFICANT WEATHER AND/OR OBSTRUCTIONS TO VISIBILITY.

KSZ001>006-013>018-027>032-041>047-231800-
NORTHWEST KANSAS

CITY           SKY/WX    TMP DP  RH WIND       PRES   REMARKS
GOODLAND       SUNNY     63  50  62 S22       29.66F
HAYS             N/A     63  56  78 S25G35    29.75F
HILL CITY      CLOUDY    67  58  72 S17G25    29.72F
RUSSELL        CLOUDY    63  56  78 S28G39    29.76S
$$

KSZ061>065-074>080-084>089-231800-
SOUTHWEST KANSAS

CITY           SKY/WX    TMP DP  RH WIND       PRES   REMARKS
DODGE CITY     CLOUDY    66  57  72 S23G35    29.78F
ELKHART          N/A     70  50  49 S21         N/A
GARDEN CITY    PTSUNNY   70  56  61 S29G39    29.73F
GREAT BEND     CLOUDY    64  57  78 S28G37    29.79F
LIBERAL        MOSUNNY   73  59  60 S28G33    29.78F
$$

KSZ066>073-081>083-090>101-231800-
SOUTHEAST KANSAS

CITY           SKY/WX    TMP DP  RH WIND       PRES   REMARKS
CHANUTE        SUNNY     70  51  51 S25G32    30.00F
COFFEYVILLE    SUNNY     69  50  50 S22G31    30.02F
HUTCHINSON     CLOUDY    63  54  72 S30G39    29.85F
MEDICINE LODGE   N/A     64  57  78 S15G25    29.84F
NEWTON         PTSUNNY   65  53  65 S31       29.88F
PARSONS        SUNNY     70  50  49 S16G28    30.02F
WICHITA INTL   CLOUDY    63  54  72 S24G35    29.90F
WICHITA JABRA  CLOUDY    64  53  67 S26G33    29.90F
WINFIELD       CLOUDY    63  53  70 S21G32    29.96F
$$

KSZ007>012-019>026-033>040-048>060-102>105-231800-
NORTHEAST KANSAS

CITY           SKY/WX    TMP DP  RH WIND       PRES   REMARKS
CONCORDIA      CLOUDY    62  55  77 S21G32    29.80F
EMPORIA        SUNNY     67  50  54 S23G36    29.94F
LAWRENCE       SUNNY     68  48  48 SE18G30   29.97F
MANHATTAN      SUNNY     70  53  54 S26G37    29.85F
OLATHE IND     SUNNY     65  46  50 S23G30    30.00F
OLATHE EXE     PTSUNNY   64  48  56 S22G28    30.00F
SALINA         MOSUNNY   70  55  59 S26G41    29.82F
TOPEKA BILLARD SUNNY     70  51  51 SE20G31   29.93F
TOPEKA FORBES  SUNNY     70  50  49 S21G30    29.94F
$$




USA.gov is the U.S. government's official web portal to all federal, state and local government web resources and services.